www.pogodaiklimat.ru

Погода и климат >> Архив погоды >> Беларусь >> Пружаны


ПОГОДА в Пружанах

  • Прогноз погоды в Пружанах
  • Монитор погоды в Пружанах
  • Климат города

АРХИВ ПОГОДЫ в Пружанах

Время (UTC), дата Ветер
(напр.,м/с)
 
Видим.   Явления Облачность Т
(С)
Тd
(С)
f
(%)
Тe
(С)
Тes
(С)
Комфортность P
(гПа)
Po
(гПа)
Тmin
(С)
Tmax
(С)
R
(мм)
R24
(мм)
S
(см)
06 11.08 Ю 1 15 км 8/0
[Ac trans Cc]
+21.2 +18.8 86 +26 +29 душно 1020.5 1001.6 +18.5 0.4
09 11.08 Ю 3 20 км 10/3 1000 м
[Cu hum Ac trans Ci fib]
+24.9 +17.4 63 +29 +32 душно 1019.2 1000.5
12 11.08 ЮЗ 3 15 км в посл. час гроза {ливн. осадки} 10/6 600 м
[Cb calv Ac As]
+22.4 +19.5 84 +28 +30 душно 1018.0 999.1
15 11.08 З 4 20 км {ливн. осадки} 10/8 900 м
[Cb calv Ac und]
+23.9 +18.7 73 +29 +29 душно 1016.9 998.1
18 11.08 СЗ 3 15 км в посл. час ливневой дождь 10/10 450 м
[St]
+19.7 +18.1 90 +23 +23 комфорт 1017.3 998.2 +25.9 3
06 12.08 З 3 15 км ясно +16.7 +13.7 82 +16 +20 1018.8 999.5 +14.9 0.4
09 12.08 ЮЗ 5 20 км 4/4 1000 м
[Cu med, cong]
+20.7 +9.5 49 +22 +26 комфорт 1018.9 999.8
12 12.08 З 5
{10}
20 км 8/5 1000 м
[Cu med, cong Ci fib]
+22.4 +8.2 40 +24 +26 комфорт 1018.2 999.3
15 12.08 З 5 20 км 9/3 600 м
[Sc diur, vesp Ci fib]
+22.7 +6.8 36 +23 +25 комфорт 1017.3 998.4
18 12.08 З 2 20 км 9/0
[Ci fib]
+19.4 +8.2 48 +21 +21 комфорт 1017.0 997.8 +23.4
06 13.08 ЮЗ 3 20 км 3/0
[Ci fib]
+16.7 +10.7 68 +16 +20 1014.7 995.5 +10.2
09 13.08 Ю 4 20 км 10/0
[Ac trans Cc]
+22.8 +11.9 50 +25 +30 комфорт 1013.4 994.6
12 13.08 ЮЗ 4 20 км 10/4 1000 м
[Cu hum Ac cast Ci fib]
+26.1 +14.6 49 +29 +31 жарко 1011.6 993.0
15 13.08 З 2 20 км 10/3 600 м
[Sc diur, vesp Ci fib]
+27.2 +12.4 40 +29 +31 жарко 1010.3 991.8
18 13.08 З 2 20 км 10/0
[Ci fib]
+23.4 +14.7 58 +27 +27 душно 1010.1 991.5 +27.8
06 14.08 Ю 3 20 км ясно +21.5 +12.5 57 +24 +27 комфорт 1010.5 991.8 +13.5
09 14.08 Ю 3 20 км 8/0
[Cs]
+28.0 +15.1 45 +31 +39 душно 1010.1 991.7
12 14.08 Ю 4 20 км 4/3 600 м
[Cu med, cong Cc]
+30.6 +14.1 37 +32 +38 жарко 1008.7 990.5
15 14.08 Ю 6 20 км 6/6 600 м
[Cb calv]
+31.0 +14.5 37 +33 +33 душно 1007.1 988.9
18 14.08 ЮЗ 3
{10}
15 км в посл. час ливневой дождь {гроза} 8/6 600 м
[Cb calv Ac trans]
+21.0 +18.1 84 +26 +26 душно 1009.6 990.9 +31.4 0.4
06 15.08 З 2 8000 м дымка 10/0
[Ac trans Ci fib]
+18.2 +17.5 96 +19 +22 1012.8 993.7 +16.1 0.0
09 15.08 З 3 15 км 10/0
[Cs]
+22.6 +17.1 71 +27 +35 душно 1013.6 994.8
12 15.08 З 4 20 км 10/4 600 м
[Cb calv Ac As]
+24.8 +14.8 54 +28 +29 жарко 1013.7 995.0
15 15.08 СЗ 4 20 км 10/3 600 м
[Cb calv Ac trans Ci fib]
+25.5 +13.6 48 +28 +28 жарко 1013.8 995.2
18 15.08 З 2 20 км 10/1 600 м
[Cb calv Ac und]
+21.9 +15.6 67 +26 +26 душно 1014.9 996.1 +25.9
06 16.08 С 4 8000 м дымка 10/10 150 м
[St]
+15.5 +14.8 96 +14 +14 1019.8 1000.5 +14.7
09 16.08 С 2 20 км 3/3 300 м
[St]
+20.3 +14.3 68 +23 +31 комфорт 1020.1 1001.0
12 16.08 С 3 20 км 9/9 400 м
[St]
+23.0 +12.9 53 +26 +27 жарко 1019.8 1000.9
15 16.08 С 3 20 км 3/3 300 м
[St]
+23.5 +12.9 51 +26 +27 жарко 1019.2 1000.4
18 16.08 С 1 20 км ясно +19.8 +14.3 71 +23 +23 комфорт 1019.5 1000.4 +23.6
06 17.08 СВ 1 10 км ясно +18.0 +14.7 81 +19 +24 1020.0 1000.3 +11.3
09 17.08 С 3 10 км 3 балла +24.1 +14.5 55 +27 +34 жарко 1020.0 1000.7
12 17.08 штиль 0 10 км 6 баллов +24.5 +13.7 51 +27 +33 жарко 1019.0 999.7
15 17.08 СВ 2 10 км 6 баллов +26.1 +13.9 47 +28 +30 жарко 1017.0 997.9
18 17.08 штиль 0 10 км 10 баллов +22.4 +17.1 72 +27 +27 душно 1017.0 997.6 +26.3

 

Местоположение метеостанции Пружаны (Брестская область, Беларусь): широта 52.55 долгота 24.49 высота над уровнем моря 167 м.

В архиве по умолчанию представлена погода в Пружанах за последнюю неделю. Архивные данные за месяц целиком и за предыдущие месяцы, начиная с января 2011 года, Вы можете получить, выбрав интересующий диапазон дат из раскрывающегося списка и нажав кнопку "Ввод!".


*Определитесь, кто Вы:
робот инопланетянин человек

Внимание! Время в таблицах - всемирное. Для получения местного времени необходимо прибавить поправку, которая в Пружанах равна 3 ч.

Смотрите также архив погоды в соседних городах и на ближайших метеорологических станциях:

Погода в Дрогичине (Брестская область, Беларусь) (57 км)
Погода в Ивацевичах (Брестская область, Беларусь) (61 км)
Погода в Волковыске (Гродненская область, Беларусь) (69 км)
Погода в Бресте (Брестская область, Беларусь) (72 км)
Погода в Высоком (Брестская область, Беларусь) (77 км)
Погода в Terespol (Польша) (80 км)
Погода в Bialystok (Польша) (108 км)
Погода в Любешове (Волынская область, Украина) (111 км)
Погода в Пинске (Брестская область, Беларусь) (117 км)
Погода в Барановичах (Брестская область, Беларусь) (119 км)

Пояснения к столбцам:

Ветер - указаны скорость ветра в м/с - средняя за 10 мин, порывы в срок и между сроками (в фигурных скобках) и направление, откуда дует ветер: С - северный, СВ - северо-восточный, В - восточный, ЮВ - юго-восточный, Ю - южный, ЮЗ - юго-западный, З - западный, СЗ - северо-западный.
Видимость - горизонтальная дальность видимости в метрах или километрах. При видимости от 1 до 10 км при отсутствии осадков обычно наблюдается дымка, при ухудшении видимости до 1 км и менее - туман. В сухую погоду видимость может ухудшаться дымом, пылью или мглою.
Явления - указаны атмосферные явления, наблюдавшиеся в срок или в последний час перед сроком; фигурными скобками обозначены явления, наблюдавшиеся между сроками (за 1-3 часа до срока); квадратными скобками обозначены град или гололедные отложения с указанием их диаметра в мм.
Облачность - указаны через наклонную черту общая и нижняя облачность в баллах и высота нижней границы облаков в метрах; квадратными скобками обозначены формы облаков: Ci - перистые, Cs - перисто-слоистые, Cc - перисто-кучевые, Ac - высококучевые, As - высокослоистые, Sc - слоисто-кучевые, Ns - слоисто-дождевые, Cu - кучевые, Cb - кучево-дождевые. Подробнее классификацию облаков см. в Атласе облаков (PDF).
T - Температура воздуха - температура, измеренная на высоте 2 м над землей.
Td - Температура точки росы - температура, при понижении до которой содержащийся в воздухе водяной пар достигнет насыщения.
f - Относительная влажность воздуха - влажноcть воздуха, измеренная на высоте 2 м над землей.
Te - Эффективная температура - температура, которую ощущает одетый по сезону человек в тени. Характеристика душности погоды. При расчете учитывается влияние влажности воздуха и скорости ветра на теплоощущения человека.
Tes - Эффективная температура на солнце - температура, которую ощущает человек, с поправкой на солнечный нагрев. Характеристика знойности погоды. Зависит от высоты солнца над горизонтом, облачности и скорости ветра. Ночью, в пасмурную погоду, а также при ветре 12 м/с и более поправка равна нулю.
P - Атмосферное давление - приведенное к уровню моря атмосферное давление.
Po - Атмосферное давление - измеренное на уровне метеостанции атмосферное давление.
Tmin - Минимальная температура - минимум температуры воздуха на высоте 2 м над землей.
Tmax - Максимальная температура - максимум температуры воздуха на высоте 2 м над землей.
R - Количество осадков - Количество выпавших осадков за период времени, мм. При наведении курсора мыши на число - период времени, за который выпало указанное количество осадков.
R24 - Количество осадков - Количество выпавших осадков за 24 часа, мм.
S - Снежный покров - Высота снежного покрова, см. При наведении курсора мыши на число - состояние снежного покрова и степень покрытия местности в баллах.